Location: Indian Springs
(36.5700°N, 115.6700°W)
Time: 15:28:40
(UTC-07:00)

Amateur Radio Satellites - All Passes

Search period start: 30 May 2015 14:58
Search period end: 31 May 2015 14:58
Location: Indian Springs, 36.5700°N, 115.6700°W

Satellite Date Start Highest point End Downlink Frequencies (MHz)
Time Altitude Azimuth
STARS 30 May 15:15:06 15:18:45 26° 95° (E) 15:22:27 437.465
ITUPSAT 1 30 May 15:16:45 15:21:01 32° 289° (WNW) 15:25:13 437.325
DANDE 30 May 15:17:36 15:19:30 11° 306° (NW) 15:20:44 436.750
BEESAT 30 May 15:21:59 15:26:03 28° 290° (WNW) 15:30:02 436.000
SWISSCUBE 30 May 15:31:33 15:35:09 21° 292° (WNW) 15:38:37 437.505
Gurwin Techsat 1B 30 May 15:44:04 15:47:35 17° 269° (W) 15:50:51 435.225
HORYU 2 30 May 15:45:44 15:50:14 83° 257° (WSW) 15:54:44 437.375
O/OREOS (USA 219) 30 May 15:51:46 15:55:27 23° 299° (WNW) 15:59:02 437.305
KKS-1 30 May 15:56:43 16:01:09 61° 285° (WNW) 16:05:31 437.445
BEESAT 3 30 May 16:00:00 16:02:51 19° 111° (ESE) 16:05:51 437.485
MOZHAYETS 4 30 May 16:19:30 16:22:23 17° 92° (E) 16:25:27
Cosmos 2499 30 May 16:35:01 16:40:44 20° 292° (WNW) 16:45:50 435.465 / 435.565
JAS-2 30 May 16:41:41 16:47:34 32° 263° (W) 16:52:47 435.910
AO-7 30 May 16:46:02 16:53:53 44° 261° (W) 17:01:43 29.400- 29.500
STARS 30 May 16:51:29 16:55:08 25° 290° (WNW) 16:58:40 437.465
BEESAT 2 30 May 16:53:04 16:57:06 64° 117° (ESE) 17:01:13 435.950
RS-15 30 May 17:05:37 17:17:05 60° 53° (NE) 17:29:03 29.354- 29.394
AIST 2 30 May 17:10:04 17:13:31 25° 113° (ESE) 17:17:05 435.215
CUTE-I 30 May 17:24:11 17:28:34 28° 69° (ENE) 17:33:05 437.470
BEESAT 3 30 May 17:36:55 17:40:38 32° 306° (NW) 17:44:21 437.485
Cubesat XI-IV 30 May 17:45:21 17:50:21 44° 72° (ENE) 17:55:26 437.490
YUBILEINY 30 May 17:54:10 18:02:30 49° 76° (ENE) 18:10:53 435.215
MOZHAYETS 4 30 May 17:55:32 17:59:49 39° 287° (WNW) 18:04:04
Cosmos 2491 30 May 17:57:37 18:04:31 28° 85° (E) 18:11:44 435.465 / 435.565
CUBESAT XI-V 30 May 18:09:22 18:12:49 21° 93° (E) 18:16:25 437.345
BEESAT 2 30 May 18:33:42 18:35:40 13° 316° (NW) 18:37:29 435.950
HO-68 30 May 18:46:12 18:49:16 14° 57° (ENE) 18:52:45 435.675
AIST 2 30 May 18:48:19 18:52:02 28° 308° (NW) 18:55:43 435.215
CUTE-I 30 May 19:03:47 19:08:33 33° 264° (W) 19:13:17 437.470
AIST 1 30 May 19:09:01 19:11:02 14° 87° (E) 19:13:15
RS-15 30 May 19:18:39 19:29:15 39° 252° (WSW) 19:39:52 29.354- 29.394
PRISM 30 May 19:20:00 19:24:03 49° 100° (E) 19:28:08 437.425
GOMX 1 30 May 19:23:36 19:27:38 23° 68° (ENE) 19:31:55 467.674
Cubesat XI-IV 30 May 19:26:47 19:30:43 20° 267° (W) 19:34:29 437.490
M-CUBED/EXP-1 PRIME 30 May 19:27:28 19:28:59 13° 98° (E) 19:30:40 437.505
STRAND 1 30 May 19:30:17 19:35:22 57° 101° (E) 19:40:26 437.568
AUBIESAT-1 30 May 19:31:39 19:33:02 12° 98° (E) 19:34:35 437.475
BRITE-PL 30 May 19:41:29 19:46:31 53° 73° (ENE) 19:51:55 437.365/2234.400
CUBESAT XI-V 30 May 19:46:05 19:50:21 34° 288° (WNW) 19:54:35 437.345
YUBILEINY 30 May 19:51:35 19:59:03 32° 274° (W) 20:06:18 435.215
Cosmos 2491 30 May 19:52:17 20:00:55 57° 282° (WNW) 20:09:34 435.465 / 435.565
DOVE 4 30 May 20:02:59 20:07:40 36° 71° (ENE) 20:12:32 437.250
Cosmos 2504 30 May 20:16:22 20:22:52 37° 75° (ENE) 20:29:32 435.465 / 435.565
CANX-2 30 May 20:28:22 20:32:36 66° 76° (ENE) 20:36:49 2200.000
HO-68 30 May 20:28:52 20:36:02 79° 73° (ENE) 20:43:14 435.675
CUTE 1.7 + AOD 2 30 May 20:31:16 20:35:29 63° 75° (ENE) 20:39:41 437.475
AIST 1 30 May 20:44:20 20:48:21 39° 281° (WNW) 20:52:23
CINEMA 3 30 May 20:46:36 20:51:24 48° 74° (ENE) 20:56:15 145.822/145.860
SEEDS 30 May 20:47:03 20:51:16 80° 78° (ENE) 20:55:29 437.485
COMPASS 1 30 May 20:53:21 20:57:31 75° 77° (ENE) 21:01:41 437.405
ZACube-1 30 May 20:54:02 20:56:56 17° 69° (ENE) 20:59:59 437.345
Oscar 11 30 May 20:55:41 20:59:25 29° 72° (ENE) 21:03:13 145.826/435.025
PRISM 30 May 20:57:16 20:59:08 12° 293° (WNW) 21:00:48 437.425
GOMX 1 30 May 21:00:33 21:05:28 41° 264° (W) 21:10:35 467.674
M-CUBED/EXP-1 PRIME 30 May 21:01:07 21:03:58 26° 292° (WNW) 21:06:49 437.505
DELFI C3 30 May 21:01:08 21:04:16 23° 71° (ENE) 21:07:29 145.870
AAUSAT CUBESAT 2 30 May 21:01:45 21:05:55 81° 78° (ENE) 21:10:05 437.432
AUBIESAT-1 30 May 21:05:04 21:07:57 27° 292° (WNW) 21:10:52 437.475
CUBEBUG 2 30 May 21:09:38 21:14:05 41° 73° (ENE) 21:18:33 437.445
STRAND 1 30 May 21:10:58 21:14:08 16° 295° (WNW) 21:17:06 437.568
ISS 30 May 21:20:55 21:24:01 46° 135° (SE) 21:27:10 145.825
BRITE-PL 30 May 21:22:00 21:25:29 17° 272° (W) 21:28:52 437.365/2234.400
VELOX 1 30 May 21:35:13 21:36:03 11° 65° (ENE) 21:37:09 145.980
DOVE 4 30 May 21:41:13 21:45:29 25° 267° (W) 21:49:45 437.250
50 SAT 30 May 21:45:08 21:47:00 13° 69° (ENE) 21:49:03 437.505
FUNcube-1 30 May 21:45:57 21:50:28 63° 76° (ENE) 21:54:59 145.935
UWE-3 30 May 21:47:30 21:52:12 86° 74° (ENE) 21:56:53 435.000/436.395/437.385
HUMSAT D 30 May 21:47:43 21:51:23 28° 72° (ENE) 21:55:06 437.325/437.525
ESTCUBE 1 30 May 21:55:26 21:56:00 10° 65° (ENE) 21:56:50 437.505/2401.250
AISAT 30 May 22:05:28 22:09:03 25° 70° (ENE) 22:12:43 437.250
Cosmos 2504 30 May 22:09:51 22:16:09 33° 272° (W) 22:22:23 435.465 / 435.565
ANTELSAT 30 May 22:13:55 22:15:53 13° 90° (E) 22:18:03 437.575/2403.000
HO-68 30 May 22:20:09 22:24:36 16° 271° (W) 22:28:37 435.675
UKube-1 30 May 22:21:14 22:25:32 70° 75° (ENE) 22:29:52 .
GONETS M04 30 May 22:25:27 22:30:23 17° 62° (ENE) 22:35:49
CINEMA 3 30 May 22:25:31 22:28:52 17° 269° (W) 22:32:02 145.822/145.860
ZACube-1 30 May 22:28:38 22:32:59 41° 262° (W) 22:37:19 437.345
DANDE 30 May 22:31:48 22:36:19 18° 60° (ENE) 22:40:30 436.750
Oscar 11 30 May 22:32:21 22:35:39 20° 267° (W) 22:38:50 145.826/435.025
CUSAT 1 30 May 22:33:23 22:38:07 21° 63° (ENE) 22:42:13 437.405
DELFI C3 30 May 22:36:03 22:39:19 23° 265° (W) 22:42:30 145.870
VERMONT LUNAR 30 May 22:36:24 22:38:17 15° 145° (SE) 22:40:15 437.305
DX 1 30 May 22:36:29 22:40:50 71° 258° (WSW) 22:45:13 434.975-435.025
PCSat 30 May 22:37:04 22:39:57 15° 105° (ESE) 22:43:06 145.827
TIGRISAT 30 May 22:43:15 22:46:57 28° 95° (E) 22:50:41 435.000
NANOSAT C BR1 30 May 22:45:14 22:47:02 13° 90° (E) 22:49:02 145.865
CUBEBUG 2 30 May 22:47:37 22:50:57 18° 268° (W) 22:54:06 437.445
CUBEBUG 1 30 May 22:53:29 22:57:32 40° 73° (ENE) 23:01:40 437.445
QB50P2 30 May 22:55:41 22:58:32 18° 93° (E) 23:01:32 145.880/145.840
ISS 30 May 22:58:12 23:00:37 19° 332° (NNW) 23:03:01 145.825
DUCHIFAT 1 30 May 23:04:45 23:08:00 22° 94° (E) 23:11:19 145.980
UNISAT 6 30 May 23:05:16 23:09:31 55° 100° (E) 23:13:43 437.425
POPSAT HIP 1 30 May 23:06:24 23:09:47 23° 94° (E) 23:13:14 437.405
VELOX 1 30 May 23:07:41 23:12:06 67° 259° (W) 23:16:32 145.980
BUGSAT 1 30 May 23:08:26 23:11:00 16° 92° (E) 23:13:44 437.445
SPROUT 30 May 23:16:24 23:19:24 19° 69° (ENE) 23:22:32 437.525
50 SAT 30 May 23:17:37 23:21:23 40° 261° (W) 23:25:10 437.505
TISAT 1 30 May 23:22:51 23:25:23 16° 68° (ENE) 23:28:06 437.305
HUMSAT D 30 May 23:23:46 23:27:09 21° 266° (W) 23:30:24 437.325/437.525
FUNcube-1 30 May 23:26:02 23:27:15 11° 271° (W) 23:28:09 145.935
ESTCUBE 1 30 May 23:27:54 23:32:21 69° 259° (W) 23:36:50 437.505/2401.250
AISAT 30 May 23:41:45 23:45:33 26° 265° (W) 23:49:19 437.250
ANTELSAT 30 May 23:48:52 23:53:00 44° 287° (WNW) 23:57:03 437.575/2403.000
QB50P1 30 May 23:49:15 23:53:32 79° 102° (ESE) 23:57:47 145.935-145.965
POLYITAN 1 30 May 23:53:46 23:58:04 90° 17° (NNE) 00:02:18 437.675
PHONESAT 2.4 30 May 23:57:49 00:00:15 18° 146° (SE) 00:02:44 2401.200-2431.200
VERMONT LUNAR 31 May 00:11:54 00:15:09 79° 159° (SSE) 00:18:23 437.305
DANDE 31 May 00:13:31 00:20:43 68° 266° (W) 00:26:07 436.750
CUSAT 1 31 May 00:15:13 00:21:24 46° 269° (W) 00:26:05 437.405
PCSat 31 May 00:17:32 00:22:53 63° 299° (WNW) 00:28:17 145.827
NANOSAT C BR1 31 May 00:19:05 00:23:11 45° 286° (WNW) 00:27:13 145.865
GONETS M04 31 May 00:19:51 00:28:41 90° 256° (WSW) 00:37:24
TIGRISAT 31 May 00:20:17 00:23:36 21° 291° (WNW) 00:26:44 435.000
O/OREOS (USA 219) 31 May 00:24:04 00:28:13 36° 64° (ENE) 00:32:22 437.305
QB50P2 31 May 00:30:42 00:34:33 32° 288° (WNW) 00:38:19 145.880/145.840
CUBEBUG 1 31 May 00:31:25 00:34:07 16° 268° (W) 00:36:41 437.445
Cosmos 2499 31 May 00:34:23 00:38:40 17° 67° (ENE) 00:43:23 435.465 / 435.565
DUCHIFAT 1 31 May 00:40:10 00:43:49 27° 289° (WNW) 00:47:21 145.980
POPSAT HIP 1 31 May 00:42:04 00:45:38 25° 289° (WNW) 00:49:04 437.405
BUGSAT 1 31 May 00:42:42 00:46:38 36° 288° (WNW) 00:50:30 437.445
UNISAT 6 31 May 00:44:11 00:45:52 12° 294° (WNW) 00:47:18 437.425
ITUPSAT 1 31 May 00:44:15 00:47:44 21° 68° (ENE) 00:51:22 437.325
BEESAT 31 May 00:48:43 00:52:28 24° 69° (ENE) 00:56:19 436.000
SPROUT 31 May 00:51:21 00:55:16 33° 263° (W) 00:59:11 437.525
Oscar 19 31 May 00:55:07 00:56:57 12° 89° (E) 00:59:06 437.125/150
TISAT 1 31 May 00:56:54 01:00:53 38° 262° (W) 01:04:53 437.305
SWISSCUBE 31 May 00:57:28 01:01:39 32° 71° (ENE) 01:05:54 437.505
BEESAT 2 31 May 01:15:14 01:18:14 20° 49° (NE) 01:21:17 435.950
PHONESAT 2.4 31 May 01:34:34 01:38:04 86° 163° (SSE) 01:41:35 2401.200-2431.200
AIST 2 31 May 01:36:02 01:36:35 10° 42° (NE) 01:37:20 435.215
SO-50 31 May 01:37:16 01:41:40 45° 115° (ESE) 01:46:16 436.795
VERMONT LUNAR 31 May 01:49:24 01:52:29 40° 354° (N) 01:55:33 437.305
BEESAT 3 31 May 01:57:22 02:01:25 67° 58° (ENE) 02:05:24 437.485
O/OREOS (USA 219) 31 May 02:04:22 02:07:23 17° 258° (WSW) 02:10:14 437.305
STARS 31 May 02:10:20 02:13:16 18° 68° (ENE) 02:16:22 437.465
GONETS M04 31 May 02:19:39 02:24:27 15° 280° (W) 02:28:37
ITUPSAT 1 31 May 02:21:04 02:25:26 35° 263° (W) 02:29:47 437.325
Gurwin Techsat 1B 31 May 02:21:20 02:25:37 25° 94° (E) 02:30:01 435.225
Cosmos 2499 31 May 02:25:33 02:32:34 70° 266° (W) 02:39:50 435.465 / 435.565
BEESAT 31 May 02:25:58 02:30:12 31° 264° (W) 02:34:22 436.000
Oscar 19 31 May 02:31:45 02:36:53 67° 285° (WNW) 02:41:57 437.125/150
SWISSCUBE 31 May 02:35:48 02:39:34 23° 266° (W) 02:43:14 437.505
KKS-1 31 May 02:52:03 02:56:32 88° 82° (E) 03:01:04 437.445
BEESAT 2 31 May 02:52:42 02:56:26 34° 246° (WSW) 03:00:04 435.950
ITAMSAT 1 31 May 02:55:51 03:01:00 58° 100° (E) 03:06:09 435.822/435.867
AO-7 31 May 03:01:34 03:03:40 11° 86° (E) 03:06:36 29.400- 29.500
AIST 2 31 May 03:11:37 03:15:51 87° 243° (WSW) 03:19:59 435.215
PHONESAT 2.4 31 May 03:13:01 03:16:23 42° 356° (N) 03:19:43 2401.200-2431.200
SO-50 31 May 03:18:50 03:22:29 21° 313° (NW) 03:26:07 436.795
MOZHAYETS 4 31 May 03:20:24 03:22:19 13° 66° (ENE) 03:24:28
VERMONT LUNAR 31 May 03:26:49 03:29:59 50° 11° (NNE) 03:33:06 437.305
HORYU 2 31 May 03:40:12 03:43:36 22° 94° (E) 03:47:06 437.375
STARS 31 May 03:45:20 03:49:28 37° 262° (W) 03:53:36 437.465
ISS 31 May 03:50:42 03:53:22 23° 31° (NNE) 03:56:03 145.825
JAS-2 31 May 03:52:33 03:57:12 33° 97° (E) 04:02:11 435.910
Gurwin Techsat 1B 31 May 04:00:51 04:05:42 36° 290° (WNW) 04:10:28 435.225
Cosmos 2491 31 May 04:13:58 04:15:13 11° 57° (ENE) 04:17:17 435.465 / 435.565
ITAMSAT 1 31 May 04:36:49 04:40:05 16° 295° (WNW) 04:43:08 435.822/435.867
AO-7 31 May 04:49:37 04:58:01 75° 105° (ESE) 05:06:23 29.400- 29.500
PHONESAT 2.4 31 May 04:51:22 04:54:48 56° 13° (NNE) 04:58:13 2401.200-2431.200
MOZHAYETS 4 31 May 04:54:38 04:59:07 56° 260° (W) 05:03:37
VERMONT LUNAR 31 May 05:04:05 05:07:09 42° 207° (SSW) 05:10:10 437.305
CUBESAT XI-V 31 May 05:11:21 05:14:00 16° 67° (ENE) 05:16:52 437.345
HORYU 2 31 May 05:16:26 05:20:16 29° 289° (WNW) 05:24:01 437.375
ISS 31 May 05:26:50 05:29:51 34° 227° (SW) 05:32:49 145.825
JAS-2 31 May 05:37:59 05:42:18 26° 291° (WNW) 05:46:40 435.910
CUTE-I 31 May 05:45:08 05:47:20 13° 89° (E) 05:49:53 437.470
Cosmos 2491 31 May 06:05:32 06:14:19 66° 80° (E) 06:23:01 435.465 / 435.565
Cubesat XI-IV 31 May 06:05:44 06:09:45 22° 93° (E) 06:13:55 437.490
PRISM 31 May 06:08:12 06:11:33 26° 71° (ENE) 06:15:00 437.425
M-CUBED/EXP-1 PRIME 31 May 06:13:25 06:15:51 16° 66° (ENE) 06:18:18 437.505
AUBIESAT-1 31 May 06:17:11 06:19:25 15° 66° (ENE) 06:21:41 437.475
PHONESAT 2.4 31 May 06:29:36 06:32:52 39° 208° (SSW) 06:36:06 2401.200-2431.200
STRAND 1 31 May 06:43:42 06:48:42 64° 75° (ENE) 06:53:47 437.568
AO-7 31 May 06:43:46 06:50:07 24° 302° (WNW) 06:56:09 29.400- 29.500
CUBESAT XI-V 31 May 06:46:41 06:51:06 46° 262° (W) 06:55:33 437.345
YUBILEINY 31 May 06:51:31 07:00:04 62° 92° (E) 07:08:39 435.215
AIST 1 31 May 06:53:46 06:57:50 36° 78° (ENE) 07:01:55
CUTE-I 31 May 07:22:39 07:28:00 69° 286° (WNW) 07:33:20 437.470
RS-15 31 May 07:26:41 07:36:41 46° 110° (ESE) 07:47:01 29.354- 29.394
PRISM 31 May 07:43:51 07:47:01 21° 266° (W) 07:50:05 437.425
Cubesat XI-IV 31 May 07:45:00 07:50:03 42° 289° (WNW) 07:55:03 437.490
M-CUBED/EXP-1 PRIME 31 May 07:46:42 07:50:32 35° 257° (WSW) 07:54:04 437.505
BRITE-PL 31 May 07:50:00 07:54:13 23° 91° (E) 07:58:23 437.365/2234.400
AUBIESAT-1 31 May 07:50:12 07:54:01 36° 256° (WSW) 07:57:33 437.475
HO-68 31 May 08:01:32 08:05:22 16° 89° (E) 08:09:40 435.675
Cosmos 2491 31 May 08:03:50 08:10:32 24° 276° (W) 08:16:48 435.465 / 435.565
DOVE 4 31 May 08:07:42 08:08:53 11° 86° (E) 08:10:23 437.250
CANX-2 31 May 08:17:51 08:19:49 13° 91° (E) 08:22:01 2200.000
CUTE 1.7 + AOD 2 31 May 08:20:46 08:22:35 13° 90° (E) 08:24:39 437.475
STRAND 1 31 May 08:26:05 08:28:27 13° 271° (W) 08:30:30 437.568
AIST 1 31 May 08:32:27 08:35:12 16° 272° (W) 08:37:47
SEEDS 31 May 08:35:09 08:37:36 16° 92° (E) 08:40:13 437.485
COMPASS 1 31 May 08:40:46 08:42:54 14° 91° (E) 08:45:15 437.405
CINEMA 3 31 May 08:46:32 08:48:23 13° 88° (E) 08:50:29 145.822/145.860
AAUSAT CUBESAT 2 31 May 08:48:34 08:50:51 15° 92° (E) 08:53:20 437.432
YUBILEINY 31 May 08:50:25 08:57:34 26° 292° (WNW) 09:04:24 435.215
Cosmos 2504 31 May 08:51:08 08:58:22 36° 89° (E) 09:05:20 435.465 / 435.565
GOMX 1 31 May 09:05:09 09:10:26 80° 102° (ESE) 09:15:20 467.674
PCSat 31 May 09:07:50 09:13:12 61° 60° (ENE) 09:18:33 145.827
ANTELSAT 31 May 09:12:01 09:13:01 11° 66° (ENE) 09:14:17 437.575/2403.000
BRITE-PL 31 May 09:27:44 09:32:56 41° 289° (WNW) 09:37:46 437.365/2234.400
JUGNU 31 May 09:28:03 09:31:15 15° 176° (S) 09:34:27 437.505
RS-15 31 May 09:38:35 09:49:02 49° 311° (NW) 09:59:44 29.354- 29.394
FUNcube-1 31 May 09:38:51 09:40:50 13° 90° (E) 09:43:00 145.935
TIGRISAT 31 May 09:39:50 09:43:18 22° 70° (ENE) 09:46:52 435.000
UWE-3 31 May 09:41:14 09:44:18 20° 93° (E) 09:47:26 435.000/436.395/437.385
DOVE 4 31 May 09:42:22 09:47:19 66° 284° (WNW) 09:51:55 437.250
HO-68 31 May 09:46:48 09:53:59 80° 287° (WNW) 10:01:07 435.675
QB50P2 31 May 09:48:17 09:49:18 11° 66° (ENE) 09:50:35 145.880/145.840
CANX-2 31 May 09:52:01 09:56:01 42° 286° (WNW) 09:59:59 2200.000
CUTE 1.7 + AOD 2 31 May 09:54:47 09:58:48 43° 286° (WNW) 10:02:47 437.475
DUCHIFAT 1 31 May 09:56:13 09:58:03 13° 67° (ENE) 10:00:06 145.980
POPSAT HIP 1 31 May 09:58:03 10:00:13 14° 67° (ENE) 10:02:34 437.405
UNISAT 6 31 May 10:01:34 10:05:52 38° 73° (ENE) 10:10:08 437.425
SEEDS 31 May 10:09:44 10:13:34 36° 287° (WNW) 10:17:22 437.485
SO-50 31 May 10:11:20 10:15:21 24° 49° (NE) 10:19:23 436.795
UKube-1 31 May 10:12:49 10:15:01 14° 91° (E) 10:17:26 .
COMPASS 1 31 May 10:14:56 10:18:48 38° 286° (WNW) 10:22:39 437.405
DELFI C3 31 May 10:16:46 10:20:42 53° 100° (E) 10:24:38 145.870
ZACube-1 31 May 10:19:54 10:23:57 43° 98° (E) 10:27:57 437.345
Oscar 11 31 May 10:20:47 10:25:06 85° 102° (ESE) 10:29:24 145.826/435.025
CINEMA 3 31 May 10:21:35 10:26:03 50° 286° (WNW) 10:30:17 145.822/145.860
AAUSAT CUBESAT 2 31 May 10:22:49 10:26:39 36° 287° (WNW) 10:30:26 437.432
DX 1 31 May 10:27:54 10:31:23 23° 95° (E) 10:34:56 434.975-435.025
QB50P1 31 May 10:39:28 10:43:29 41° 73° (ENE) 10:47:33 145.935-145.965
CUBEBUG 2 31 May 10:39:54 10:44:14 63° 284° (WNW) 10:48:24 437.445
Cosmos 2504 31 May 10:44:00 10:51:41 40° 284° (WNW) 10:58:49 435.465 / 435.565
POLYITAN 1 31 May 10:44:08 10:48:16 48° 74° (ENE) 10:52:28 437.675
ANTELSAT 31 May 10:44:38 10:49:18 72° 259° (WSW) 10:53:56 437.575/2403.000
GOMX 1 31 May 10:45:57 10:47:49 12° 297° (WNW) 10:49:20 467.674
PCSat 31 May 10:52:55 10:56:10 16° 254° (WSW) 10:59:08 145.827
SRMSAT 31 May 10:54:49 10:57:48 14° 174° (S) 11:00:48 437.500
50 SAT 31 May 10:56:40 10:59:52 25° 95° (E) 11:03:07 437.505
VELOX 1 31 May 11:01:03 11:04:52 27° 96° (E) 11:08:43 145.980
NANOSAT C BR1 31 May 11:08:37 11:12:55 87° 257° (WSW) 11:17:14 145.865
HUMSAT D 31 May 11:09:13 11:13:21 74° 101° (E) 11:17:26 437.325/437.525
FUNcube-1 31 May 11:13:26 11:17:28 42° 287° (WNW) 11:21:23 145.935
TIGRISAT 31 May 11:15:37 11:19:52 33° 263° (W) 11:24:03 435.000
JUGNU 31 May 11:16:28 11:19:30 14° 186° (S) 11:22:29 437.505
UWE-3 31 May 11:17:09 11:20:55 29° 289° (WNW) 11:24:32 435.000/436.395/437.385
QB50P2 31 May 11:20:30 11:24:44 60° 260° (W) 11:29:01 145.880/145.840
ESTCUBE 1 31 May 11:23:21 11:27:18 29° 96° (E) 11:31:17 437.505/2401.250
GONETS M04 31 May 11:24:05 11:29:53 21° 83° (E) 11:36:10
DUCHIFAT 1 31 May 11:29:19 11:33:28 50° 261° (W) 11:37:39 145.980
BUGSAT 1 31 May 11:29:40 11:33:49 74° 258° (WSW) 11:38:03 437.445
POPSAT HIP 1 31 May 11:31:37 11:35:44 45° 261° (W) 11:39:53 437.405
CUSAT 1 31 May 11:33:06 11:39:45 35° 88° (E) 11:47:08 437.405
AISAT 31 May 11:34:03 11:38:32 70° 101° (ESE) 11:42:59 437.250
DANDE 31 May 11:36:14 11:42:19 29° 85° (E) 11:49:18 436.750
HO-68 31 May 11:37:14 11:40:46 14° 303° (WNW) 11:43:53 435.675
UNISAT 6 31 May 11:39:26 11:42:46 19° 267° (W) 11:45:57 437.425
UKube-1 31 May 11:47:16 11:51:25 43° 287° (WNW) 11:55:31 .
SO-50 31 May 11:51:25 11:56:04 40° 246° (WSW) 12:00:35 436.795
DELFI C3 31 May 11:54:26 11:55:24 11° 293° (WNW) 11:56:08 145.870
ZACube-1 31 May 11:57:40 11:59:58 14° 293° (WNW) 12:02:04 437.345
RS-15 31 May 11:58:32 12:05:22 17° 342° (NNW) 12:12:01 29.354- 29.394
DX 1 31 May 12:03:52 12:07:37 27° 290° (WNW) 12:11:16 434.975-435.025
Oscar 19 31 May 12:09:22 12:12:15 16° 65° (ENE) 12:15:22 437.125/150
QB50P1 31 May 12:17:09 12:19:36 14° 269° (W) 12:21:50 145.935-145.965
CUBEBUG 1 31 May 12:20:36 12:25:03 70° 284° (WNW) 12:29:27 437.445
POLYITAN 1 31 May 12:22:34 12:24:31 12° 270° (W) 12:26:14 437.675
50 SAT 31 May 12:31:39 12:34:27 19° 290° (WNW) 12:37:07 437.505
VELOX 1 31 May 12:37:41 12:41:20 24° 290° (WNW) 12:44:51 145.980
SPROUT 31 May 12:40:03 12:44:15 49° 99° (E) 12:48:27 437.525
SRMSAT 31 May 12:43:04 12:46:12 15° 184° (S) 12:49:17 437.500
TISAT 1 31 May 12:43:44 12:47:42 37° 98° (E) 12:51:39 437.305
ESTCUBE 1 31 May 13:00:25 13:04:03 23° 290° (WNW) 13:07:34 437.505/2401.250
Cosmos 2499 31 May 13:09:43 13:13:49 16° 84° (E) 13:18:17 435.465 / 435.565
AISAT 31 May 13:13:44 13:14:36 10° 295° (WNW) 13:15:11 437.250
CUSAT 1 31 May 13:14:50 13:22:13 48° 286° (WNW) 13:30:12 437.405
GONETS M04 31 May 13:17:07 13:25:57 73° 279° (W) 13:34:49
DANDE 31 May 13:17:37 13:25:00 58° 284° (WNW) 13:33:26 436.750
Gurwin Techsat 1B 31 May 13:40:01 13:44:36 32° 70° (ENE) 13:49:18 435.225
Oscar 19 31 May 13:46:02 13:51:10 60° 259° (W) 13:56:19 437.125/150
AO-7 31 May 13:57:41 14:02:08 17° 54° (NE) 14:07:02 29.400- 29.500
JAS-2 31 May 14:05:46 14:07:46 12° 64° (ENE) 14:10:06 435.910
ITAMSAT 1 31 May 14:11:21 14:16:28 68° 75° (ENE) 14:21:39 435.822/435.867
RS-15 31 May 14:17:29 14:24:13 17° 18° (NNE) 14:31:27 29.354- 29.394
SPROUT 31 May 14:17:49 14:19:57 13° 293° (WNW) 14:21:52 437.525
TISAT 1 31 May 14:20:27 14:23:12 16° 292° (WNW) 14:25:46 437.305
ITUPSAT 1 31 May 14:23:33 14:28:20 71° 101° (E) 14:33:08 437.325
BEESAT 31 May 14:27:54 14:32:42 81° 103° (ESE) 14:37:28 436.000
O/OREOS (USA 219) 31 May 14:33:27 14:37:57 71° 109° (ESE) 14:42:26 437.305
HORYU 2 31 May 14:36:56 14:39:39 17° 68° (ENE) 14:42:31 437.375
SWISSCUBE 31 May 14:37:16 14:42:02 74° 285° (WNW) 14:46:49 437.505
KKS-1 31 May 14:46:33 14:49:49 20° 94° (E) 14:53:11 437.445
